SUPERVIEW-1 04 (43100 NORAD) Tracking and Keplerian Element Data

This shows tracking and keplerian element data for the satellite.

Feedback or suggestion? Click here.




ElementValue
Catalog43100
NameSUPERVIEW-1 04
Epoch Orbit448
Epoch Day38.80692137
Epoch Year2018
RAAN115.8745
Inclination97.5796
Eccentricity0.0012449
Argument of Perigee199.6937
Mean Anonmoly292.6208
Mean Motion15.13895755
Decay Rate6.64E-06
L11 43100U 18002B 18038.80692137 .00000664 00000-0 40351-4 0 9998
L22 43100 97.5796 115.8745 0012449 199.6937 292.6208 15.13895755 4482

Live tracking and technical data element details for SUPERVIEW-1 04 (NORAD 43100). SUPERVIEW-1 04 can be tracked NOW for your location showing map with azimuth and elevation plus other details from your city location.

Track the satellite on the map from your city or location and see movement details for azimuth, elevation, latitude, longitude, range, height, and movement on the map or in text.







IsCatalogInMostPopularTable: catalog: 43100, numindb: 121
Update: records affected: 1



GetName: 43100 SUPERVIEW-1 04

Hit Count: updated at: Mon, 19 Nov 2018 13:29:35 GMT